Location: Newark
(36.3167°N, 3.7500°E)
Time: 02:39:00
(UTC+00:00)

LightSail 2 - Visible Passes

Search period start: 16 November 2019 00:00
Search period end: 26 November 2019 00:00
Orbit: 701 x 726 km, 24.0° (Epoch: 15 November)

Date Brightness Start Highest point End Pass type
(mag) Time Alt. Az. Time Alt. Az. Time Alt. Az.
16 Nov 7.1 03:58:31 19° S 03:58:31 19° S 04:01:32 10° SE visible
16 Nov 7.4 05:40:09 10° SW 05:42:36 13° SSW 05:45:04 10° SSE visible
17 Nov 7.2 04:43:13 14° SW 04:44:54 16° SSW 04:47:58 10° SSE visible
18 Nov 7.4 03:48:56 15° SSE 03:48:56 15° SSE 03:50:35 10° SSE visible
19 Nov 7.4 04:33:37 11° SSW 04:34:13 12° SSW 04:36:01 10° S visible
